Home > Weather > Oer-Erkenschwick > Past weeks

Flag for Germany Past Weather in Oer-Erkenschwick, North Rhine-Westphalia, Germany — Yesterday and Last 2 Weeks

Now
72 °F

Scattered clouds.


Feels Like: 77 °F
Forecast: 55 / 66 °F
Wind: 7 mph from Southwest

Location: Dortmund / Wickede

Current Time: Jul 30, 2016 at 5:01:16 PM

Latest Report: Jul 30, 2016 at 4:20 PM


Visibility: N/A

Pressure: 29.92 "Hg

Humidity: 50%

Dew Point: 52 °F

Location of Oer-ErkenschwickLocation

Past Weather in Oer-Erkenschwick — Graph

°F

Oer-Erkenschwick Temperature Yesterday

Maximum temperature yesterday: 72 °F (at 2:50 PM)
Minimum temperature yesterday: 59 °F (at 5:20 AM)
Average temperature yesterday: 66 °F

High & Low Weather Summary for the Past Weeks

 TemperatureHumidityPressure
High91 °F (Jul 20, 3:20 PM)88% (Jul 18, 5:20 AM)30.27 "Hg (Jul 18, 5:20 AM)
Low55 °F (Jul 18, 5:50 AM)20% (Jul 20, 5:20 PM)29.86 "Hg (Jul 20, 6:20 PM)
Average70 °F62%30.06 "Hg
* Reported Jul 15 3:20 PM — Jul 30 3:50 PM, Oer-Erkenschwick, Weather by CustomWeather, © 2016

Note: Actual official high and low records may vary slightly from our data, if they occured in-between our weather recording intervals... More about our weather records

Advertising

Oer-Erkenschwick Weather History for the Previous 24 Hours

Scroll right to see more
 ConditionsComfort  
Time TempWeatherWind HumidityBarometerVisibility
3:50 PM
Sat, Jul 30
72 °FPassing clouds.6 mph50%29.92 "HgN/A
3:20 PM70 °FPartly sunny.5 mph53%29.92 "HgN/A
2:50 PM70 °FBroken clouds.6 mph57%29.92 "HgN/A
2:20 PM70 °FPartly sunny.7 mph53%29.92 "HgN/A
1:50 PM72 °FPartly sunny.9 mph53%29.92 "HgN/A
1:20 PM70 °FPartly sunny.8 mph57%29.92 "HgN/A
12:50 PM70 °FPartly sunny.10 mph53%29.92 "HgN/A
12:20 PM68 °FPartly sunny.10 mph56%29.92 "HgN/A
11:50 AM68 °FPartly sunny.12 mph60%29.92 "HgN/A
11:20 AM68 °FPartly sunny.15 mph56%29.92 "HgN/A
10:50 AM64 °FPartly sunny.14 mph64%29.92 "HgN/A
10:20 AM64 °FPartly sunny.14 mph64%29.92 "HgN/A
9:50 AM64 °FScattered clouds.15 mph64%29.92 "HgN/A
9:20 AM63 °FPassing clouds.12 mph68%29.89 "HgN/A
8:50 AM64 °FPassing clouds.12 mph64%29.92 "HgN/A
8:20 AM63 °FPassing clouds.15 mph68%29.92 "HgN/A
7:50 AM63 °FPassing clouds.12 mph68%29.89 "HgN/A
7:20 AM61 °FPassing clouds.8 mph72%29.89 "HgN/A
6:50 AM61 °FPassing clouds.7 mph72%29.89 "HgN/A
6:20 AM61 °FPassing clouds.8 mph72%29.89 "HgN/A
5:50 AM61 °FPassing clouds.8 mph72%29.89 "HgN/A
5:20 AM61 °FClear.7 mph72%29.89 "Hg10 mi
9:50 PM
Fri, Jul 29
66 °FScattered clouds.9 mph60%29.89 "HgN/A
9:20 PM68 °FPassing clouds.10 mph60%29.89 "HgN/A
8:50 PM70 °FPassing clouds.9 mph57%29.86 "HgN/A
8:20 PM70 °FPassing clouds.7 mph60%29.86 "HgN/A
7:50 PM70 °FPassing clouds.9 mph60%29.86 "HgN/A
7:20 PM70 °FSunny.13 mph60%29.86 "Hg10 mi
6:50 PM70 °FSunny.14 mph64%29.86 "Hg10 mi
6:20 PM70 °FSunny.14 mph60%29.86 "Hg10 mi
5:50 PM70 °FScattered clouds.12 mph60%29.86 "HgN/A
5:20 PM70 °FScattered clouds.14 mph57%29.86 "HgN/A
Weather by CustomWeather, © 2016

See weather overviewHow to use our weather pages